EW3125 Weather Reports


time (UTC)temp
F
wind
direction
speed
knots
gust
knots
rain 1hr
in
rain 24hr
in
rain mn
in
humidity
%
barometer
mb
20260510044544 73 109 0.9 1.7 0.00 0.00 0.00 73 1010.2
20260510043038 73 126 0.9 2.6 0.00 0.00 0.00 73 1010.3
20260510041542 74 101 0.9 2.6 0.00 0.00 0.00 73 1010.1
20260510040043 74 126 0.9 2.6 0.00 0.00 0.00 74 1010.0
20260510034542 74 120 0.0 1.7 0.00 0.00 0.00 74 1010.0
20260510033055 74 119 0.9 1.7 0.00 0.00 0.00 74 1009.8
20260510031547 74 144 0.9 1.7 0.00 0.00 0.00 76 1009.6
20260510030040 75 124 0.0 1.7 0.00 0.00 0.00 74 1009.3
20260510024544 75 124 0.0 1.7 0.00 0.00 0.00 72 1009.1
20260510023042 76 124 0.0 0.9 0.00 0.00 0.00 71 1009.0
20260510021540 77 134 0.9 1.7 0.00 0.00 0.00 72 1008.7
20260510020045 77 111 0.0 1.7 0.00 0.00 0.00 74 1008.7
20260510014536 78 111 0.0 1.7 0.00 0.00 0.00 72 1008.6
20260510013044 79 143 0.9 3.5 0.00 0.00 0.00 71 1008.3
20260510011551 80 115 0.9 4.3 0.00 0.00 0.00 70 1008.5
20260510010042 82 144 0.9 5.2 0.00 0.00 0.00 71 1008.3
20260510004548 83 116 3.5 8.7 0.00 0.00 0.00 71 1008.1
20260510003101 84 130 0.9 3.5 0.00 0.00 0.00 69 1008.1
20260510001540 84 124 1.7 5.2 0.00 0.00 0.00 68 1007.9
20260510000045 85 95 2.6 6.1 0.00 0.00 0.00 66 1007.8
20260509234558 86 80 1.7 5.2 0.00 0.00 0.00 66 1007.6
20260509233043 86 93 1.7 3.5 0.00 0.00 0.00 64 1007.6
20260509231551 86 80 0.9 2.6 0.00 0.00 0.00 65 1007.4
20260509230048 85 46 0.9 4.3 0.00 0.00 0.00 65 1007.5
20260509224542 83 49 0.0 2.6 0.00 0.00 0.00 66 1007.5
20260509223036 80 106 0.0 1.7 0.00 0.00 0.00 69 1007.5
20260509221544 79 311 1.7 1.7 0.00 0.00 0.00 67 1007.6
20260509220042 79 327 0.9 3.5 0.00 0.00 0.00 66 1007.6
20260509214540 80 318 1.7 4.3 0.00 0.00 0.00 65 1007.5
20260509213043 81 340 2.6 5.2 0.00 0.00 0.00 62 1007.6
20260509211541 82 336 6.1 11.3 0.00 0.00 0.00 59 1007.8
20260509210051 87 322 3.5 7.0 0.00 0.00 0.00 60 1007.9
20260509204544 88 198 4.3 6.1 0.00 0.00 0.00 56 1007.7
20260509203040 89 349 2.6 5.2 0.00 0.00 0.00 55 1008.3
20260509201542 88 350 1.7 3.5 0.00 0.00 0.00 58 1008.3
20260509200041 88 153 0.9 5.2 0.00 0.00 0.00 59 1008.8
20260509194541 88 223 3.5 8.7 0.00 0.00 0.00 60 1008.9
20260509193046 87 250 3.5 6.1 0.00 0.00 0.00 64 1009.0
20260509191542 86 188 4.3 7.0 0.00 0.00 0.00 68 1009.0
20260509190043 85 192 0.9 4.3 0.00 0.00 0.00 69 1009.4
20260509184541 85 159 2.6 6.1 0.00 0.00 0.00 67 1009.8
20260509183104 84 254 1.7 7.0 0.00 0.00 0.00 69 1010.0
20260509181600 85 228 1.7 6.1 0.00 0.00 0.00 69 1010.0
20260509180041 84 287 3.5 11.3 0.00 0.00 0.00 74 1010.2
20260509174543 83 286 3.5 7.8 0.00 0.00 0.00 75 1010.4
20260509173042 82 252 4.3 8.7 0.00 0.00 0.00 73 1010.6
20260509171544 82 298 2.6 7.0 0.00 0.00 0.00 75 1010.6
20260509170041 82 223 3.5 7.0 0.00 0.00 0.00 78 1010.6
20260509164541 81 232 2.6 7.0 0.00 0.00 0.00 79 1010.8
20260509163040 80 222 4.3 7.0 0.00 0.00 0.00 81 1010.7
20260509161541 80 262 1.7 5.2 0.00 0.00 0.00 81 1010.8
20260509160041 79 284 1.7 5.2 0.00 0.00 0.00 82 1010.7
20260509154546 77 267 0.9 5.2 0.00 0.00 0.00 86 1010.4
20260509153040 76 194 0.9 4.3 0.00 0.00 0.00 91 1010.4
20260509151542 74 0 0.9 1.7 0.00 0.00 0.00 94 1010.4
20260509150040 73 179 1.7 6.1 0.00 0.00 0.00 96 1010.5
20260509144542 73 158 2.6 4.3 0.00 0.00 0.00 96 1010.8
20260509143043 73 190 0.9 1.7 0.00 0.00 0.00 96 1010.9
20260509141541 73 0 0.0 1.7 0.00 0.00 0.00 96 1010.2
20260509140046 73 0 0.0 1.7 0.00 0.00 0.00 96 1010.4
20260509134541 73 111 0.9 1.7 0.00 0.00 0.00 96 1010.3
20260509133040 72 169 0.0 2.6 0.00 0.00 0.00 96 1010.6
20260509131540 72 134 0.9 1.7 0.00 0.00 0.00 96 1010.6
20260509130046 72 129 0.9 1.7 0.00 0.00 0.00 96 1010.4
20260509124542 72 94 0.9 2.6 0.00 0.00 0.00 96 1010.3
20260509123042 72 173 0.9 2.6 0.00 0.00 0.00 96 1010.4
20260509121541 72 9 0.0 1.7 0.00 0.00 0.00 96 1010.2
20260509120051 72 0 0.0 0.9 0.00 0.00 0.00 96 1010.4
20260509114541 72 165 0.9 1.7 0.00 0.00 0.00 96 1010.1
20260509113042 72 24 1.7 4.3 0.00 0.00 0.00 96 1010.4
20260509111540 72 11 2.6 7.0 0.00 0.00 0.00 96 1010.1
20260509110041 72 37 3.5 8.7 0.00 0.00 0.00 96 1010.4
20260509104545 72 5 2.6 4.3 0.00 0.00 0.00 96 1010.3
20260509103042 72 0 0.0 1.7 0.00 0.00 0.00 96 1010.0
20260509101551 72 123 0.9 1.7 0.00 0.00 0.00 96 1010.1
20260509100041 72 52 0.0 0.0 0.00 0.00 0.00 96 1010.1
20260509094541 72 32 0.9 1.7 0.00 0.00 0.00 95 1009.8
20260509093052 72 61 0.0 1.7 0.00 0.00 0.00 95 1009.7
20260509091540 72 36 0.9 1.7 0.00 0.00 0.00 95 1009.7
20260509090043 72 51 0.0 1.7 0.00 0.00 0.00 95 1009.5
20260509084550 72 71 0.9 3.5 0.00 0.00 0.00 95 1009.6
20260509083040 72 31 0.9 2.6 0.00 0.00 0.00 95 1009.9
20260509081543 72 142 0.0 1.7 0.00 0.00 0.00 94 1009.8
20260509080050 72 142 0.0 1.7 0.00 0.00 0.00 94 1009.5
20260509074543 72 183 0.9 3.5 0.00 0.00 0.00 94 1009.7
20260509073042 72 193 0.9 4.3 0.00 0.00 0.00 94 1009.8
20260509071541 72 167 2.6 5.2 0.00 0.00 0.00 94 1009.6
20260509070045 72 163 1.7 4.3 0.00 0.00 0.00 94 1009.8
20260509064541 72 159 1.7 7.0 0.00 0.00 0.00 94 1009.6
20260509063041 72 144 2.6 5.2 0.00 0.00 0.00 93 1009.7
20260509061545 72 152 2.6 7.0 0.00 0.00 0.00 93 1009.5
20260509060048 72 121 2.6 6.1 0.00 0.00 0.00 93 1009.5
20260509054542 72 161 2.6 7.0 0.00 0.00 0.00 93 1009.6
20260509053042 72 173 5.2 8.7 0.00 0.00 0.00 93 1009.7
20260509051541 72 163 2.6 7.0 0.00 0.00 0.00 93 1009.4
20260509050045 72 142 2.6 6.1 0.00 0.00 0.00 93 1009.3